Current weather by "City, St" or "zip code"  
 

Current Conditions: Terre Haute Regional Airport, IN

A Few Clouds


52.0 F

Last Updated on Oct 29 2020, 5:53 pm EDT
Humidity: 75%
Wind Speed: N 6.9 mph
Barometer 29.79 in
Dewpoint: 44.1 F
Visibility: 10.00 mi
Precip: --
Heat Index: NA
Wind Chill: 50 F
Current conditions at:

Terre Haute Regional Airport, IN (KHUF)

Lat: 39.4429 Lon: 87.32207

Local Radar Image active severe weather and emergency alerts image image weather storm and storm spotter reports image weather observation monitoring service image
Local
Radar
Active
Alerts
Storm Reports Obs
Monitoring

Sign-up For Email & Text Message Weather Alert Notification Services



Advertise Here

Observation History for Terre Haute Regional Airport, IN


Time Wind
(mph)
Vis
(mi)
Weather Precip (in) Temperature (F) Relative
Humidity
Wind
Chill
(F)
Heat
Index
(F)
Pressure
Air Dwpt altimeter
(in)
sea level
(mb)
Rmks
5:53 pm EDT N 6.9 10.00 A Few Clouds -- 52.0 44.1 75% 50 NA 29.79 1008.9
4:53 pm EDT N 9.2 10.00 Light Rain Trace 52.0 41.0 66% 49 NA 29.77 1008.2
3:53 pm EDT N 9.2 10.00 Overcast Trace 51.0 42.1 71% 48 NA 29.75 1007.3
2:53 pm EDT N 9.2 10.00 Overcast Trace 50.0 41.0 71% 46 NA 29.75 1007.6
1:53 pm EDT N 11.5 10.00 Light Rain Trace 48.0 39.9 74% 43 NA 29.75 1007.5
12:53 pm EDT N 10.4 10.00 Light Rain 00.01 49.0 41.0 74% 45 NA 29.75 1007.3
11:53 am EDT N 10.4 G 21.9 10.00 Overcast -- 48.0 42.1 80% 43 NA 29.74 1007.1
10:53 am EDT N 12.7 G 19.6 10.00 Overcast Trace 47.0 43.0 86% 41 NA 29.74 1007.2
9:53 am EDT N 12.7 10.00 Light Rain 00.04 47.0 43.0 86% 41 NA 29.71 1006.3
8:53 am EDT N 12.7 G 25.3 9.00 Light Rain 00.06 46.0 42.1 86% 40 NA 29.72 1006.6
7:53 am EDT N 15.0 G 23.0 7.00 Light Rain 00.10 47.0 43.0 86% 41 NA 29.70 1005.9
6:53 am EDT NE 15.0 G 21.9 8.00 Light Rain -- 49.0 45.0 86% 43 NA 29.71 1006.2
5:53 am EDT NE 15.0 4.00 Rain Fog/Mist 00.24 50.0 46.9 89% 45 NA 29.71 1005.9
4:53 am EDT N 10.4 G 20.7 4.00 Rain Fog/Mist 00.18 50.0 46.9 89% 46 NA 29.72 1006.5
3:53 am EDT N 11.5 5.00 Rain Fog/Mist 00.11 50.0 46.9 89% 46 NA 29.76 1007.8
1:53 am EDT NE 6.9 5.00 Light Rain Fog/Mist 00.10 51.0 48.0 89% 48 NA 29.82 1009.7
12:53 am EDT N 5.8 3.00 Heavy Rain Fog/Mist 00.13 51.0 48.0 89% 49 NA 29.85 1010.8
11:53 pm EDT NE 4.6 6.00 Rain Fog/Mist 00.07 51.0 46.9 86% 50 NA 29.89 1012.0
10:53 pm EDT N 5.8 9.00 Light Rain 00.03 51.0 46.9 86% 49 NA 29.91 1013.1
9:53 pm EDT E 4.6 10.00 A Few Clouds -- 51.0 46.0 83% 50 NA 29.94 1014.0
8:53 pm EDT NE 6.9 10.00 Mostly Cloudy -- 52.0 46.0 80% 50 NA 29.94 1014.2
7:53 pm EDT E 4.6 10.00 Partly Cloudy -- 51.0 46.0 83% 50 NA 29.96 1014.7
6:53 pm EDT E 5.8 10.00 A Few Clouds -- 52.0 45.0 77% 50 NA 29.97 1014.9

Regional Weather Observation


Terre Haute Regional Airport, IN (KHUF)

A Few Clouds
52.0 F

Robinson Municipal Airport, IL (KRSV)

Light Rain
48.0 F

Mattoon / Charleston, Coles County Memorial Airport, IL (KMTO)

Overcast and Breezy
49.0 F

Danville, Vermilion County Airport, IL (KDNV)

Partly Cloudy and Breezy
49.0 F

Bloomington, Monroe County Airport, IN (KBMG)

Light Rain
46.0 F

University of Illinois - Willard, IL (KCMI)

Overcast
47.0 F